TimeMST,TemperatureF,Dew PointF,Humidity,Sea Level PressureIn,VisibilityMPH,Wind Direction,Wind SpeedMPH,Gust SpeedMPH,PrecipitationIn,Events,Conditions,WindDirDegrees,DateUTC
12:53 AM,28.0,18.0,66,30.17,10.0,Calm,Calm,-,N/A,,Clear,0,2012-11-14 07:53:00
1:53 AM,26.1,17.1,69,30.18,10.0,West,4.6,-,N/A,,Clear,280,2012-11-14 08:53:00
2:53 AM,30.0,18.0,61,30.16,10.0,Variable,5.8,-,N/A,,Clear,0,2012-11-14 09:53:00
3:53 AM,30.0,17.1,59,30.15,10.0,West,3.5,-,N/A,,Clear,270,2012-11-14 10:53:00
4:53 AM,30.0,18.0,61,30.15,10.0,SSW,5.8,-,N/A,,Clear,210,2012-11-14 11:53:00
5:53 AM,34.0,18.0,52,30.14,10.0,South,6.9,-,N/A,,Clear,190,2012-11-14 12:53:00
6:53 AM,27.0,17.1,66,30.17,10.0,SSE,4.6,-,N/A,,Partly Cloudy,160,2012-11-14 13:53:00
7:53 AM,30.9,18.0,59,30.17,10.0,WSW,9.2,-,N/A,,Clear,250,2012-11-14 14:53:00
8:53 AM,35.1,19.9,54,30.15,10.0,Calm,Calm,-,N/A,,Clear,0,2012-11-14 15:53:00
9:53 AM,33.1,21.9,64,30.15,10.0,SSW,4.6,-,N/A,,Clear,200,2012-11-14 16:53:00
10:53 AM,37.9,23.0,55,30.13,10.0,South,3.5,-,N/A,,Overcast,180,2012-11-14 17:53:00
11:53 AM,44.1,21.0,40,30.09,10.0,SSW,4.6,-,N/A,,Overcast,200,2012-11-14 18:53:00
12:53 PM,45.0,27.0,49,30.09,10.0,Calm,Calm,-,N/A,,Partly Cloudy,0,2012-11-14 19:53:00
1:53 PM,43.0,26.1,51,30.10,10.0,West,3.5,-,N/A,,Scattered Clouds,270,2012-11-14 20:53:00
2:53 PM,43.0,27.0,53,30.10,10.0,Calm,Calm,-,N/A,,Mostly Cloudy,0,2012-11-14 21:53:00
3:53 PM,39.9,27.0,60,30.14,10.0,North,12.7,20.7,N/A,,Scattered Clouds,350,2012-11-14 22:53:00
4:53 PM,36.0,25.0,64,30.17,10.0,WNW,5.8,-,N/A,,Clear,290,2012-11-14 23:53:00
5:53 PM,39.0,23.0,53,30.17,10.0,NNW,11.5,-,N/A,,Partly Cloudy,330,2012-11-15 00:53:00
6:53 PM,37.0,26.1,65,30.22,10.0,NNW,9.2,-,N/A,,Clear,330,2012-11-15 01:53:00
7:53 PM,37.0,23.0,57,30.23,10.0,NW,10.4,-,N/A,,Scattered Clouds,310,2012-11-15 02:53:00
8:53 PM,35.1,26.1,70,30.25,10.0,NW,11.5,-,N/A,,Scattered Clouds,310,2012-11-15 03:53:00
9:53 PM,34.0,27.0,75,30.27,10.0,WNW,8.1,-,N/A,,Mostly Cloudy,290,2012-11-15 04:53:00
10:53 PM,35.1,25.0,67,30.27,10.0,North,8.1,-,N/A,,Clear,350,2012-11-15 05:53:00
11:53 PM,32.0,24.1,73,30.27,10.0,NW,6.9,-,N/A,,Clear,320,2012-11-15 06:53:00